Weather Roundup
Issued by NWS Springfield, MO

Home | Current Version | Previous Version | Text Only | Print | Product List | Glossary On
Versions: 1 2 3 4 5 6 7 8 9 10 11 12 13 14 15 16 17 18 19 20 21 22 23 24 25 26 27 28 29 30 31 32 33 34 35 36 37 38 39 40 41 42 43 44 45 46 47 48 49 50
000
NZUS99 KSGF 051107
HRRSGF

HOURLY WEATHER
NATIONAL WEATHER SERVICE SPRINGFIELD MO
600 AM CDT THU MAY 05 2016

......SGF CWA......

CITY           SKY/WX    TMP DP  RH WIND       PRES   REMARKS
SPRINGFIELD    CLEAR     44  36  73 W3        29.99R
JOPLIN         CLEAR     42  40  92 CALM      30.03R
WEST PLAINS    CLEAR     46  35  65 NW6       29.96R
ROLLA          CLEAR     43  36  76 NW6       29.94R
OSAGE BEACH    CLEAR     43  34  70 W3        29.98R

......SURROUNDING SGF CWA......

CITY           SKY/WX    TMP DP  RH WIND       PRES   REMARKS
CHANUTE        CLEAR     44  39  82 NW3       30.04R
PARSONS        CLEAR     43  42  97 CALM      30.05R
COFFEYVILLE    CLEAR     44  41  89 NW3       30.05R
EMPORIA        CLEAR     46  40  79 W6        30.05R
GROVE OK       CLEAR     43  43 100 CALM      30.04S
ROGERS AR      CLEAR     43  39  86 W3        30.03R
SILOAM SPRINGS CLEAR     43  34  70 CALM      30.04R
HARRISON AR    CLEAR     48  39  71 W5        30.00R
NEAR YELLVILLE CLEAR    N/A N/A N/A S3        29.96R

......KANSAS AND MISSOURI......

CITY           SKY/WX    TMP DP  RH WIND       PRES   REMARKS
KANSAS CTY INT PTCLDY    47  40  76 NW7       30.02R
DOWNTOWN KC    CLEAR     49  44  83 CALM      30.02R
COLUMBIA       CLEAR     43  38  82 N7        29.97R
SEDALIA        CLEAR     48  39  71 NW5       30.00R
ST JOSEPH      CLEAR     41  40  96 CALM      30.03R
ST LOUIS       CLEAR     49  37  63 N9        29.94R
SPIRIT OF STL  CLEAR     47  37  68 N3        29.94R
KIRKSVILLE     CLEAR     42  34  73 N8        30.01R
WICHITA        CLEAR     48  39  71 NW6       30.07R
TOPEKA         CLEAR     47  42  83 CALM      30.04R
OLATHE         CLEAR     48  39  71 W7        30.02R

......TENNESSEE......

CITY           SKY/WX    TMP DP  RH WIND       PRES   REMARKS
MEMPHIS        PTCLDY    51  46  83 CALM      29.91R
NASHVILLE      PTCLDY    45  40  82 SW3       29.81S

......ARKANSAS.......

CITY           SKY/WX    TMP DP  RH WIND       PRES   REMARKS
FAYETTEVILLE   CLEAR     39  39 100 CALM      30.03R
FT SMITH       CLEAR     49  43  80 SW3       30.02R
LITTLE ROCK    PTCLDY    55  43  63 NW7       29.98R

......OKLAHOMA.......

CITY           SKY/WX    TMP DP  RH WIND       PRES   REMARKS
TULSA          CLEAR     49  44  83 CALM      30.03R
PONCA CITY     CLEAR     41  39  93 CALM      30.07R
MCALESTER      MOCLDY    44  41  89 CALM      30.05R
OKLAHOMA CITY  CLEAR     52  41  66 NW6       30.07R

......IOWA............

CITY           SKY/WX    TMP DP  RH WIND       PRES   REMARKS
DES MOINES     PTCLDY    45  37  73 CALM      30.04R
QUAD CITIES    CLEAR     39  35  86 CALM      29.99R

......ILLINOIS........

CITY           SKY/WX    TMP DP  RH WIND       PRES   REMARKS
QUINCY         CLEAR     42  36  79 N9        29.97R
CHICAGO        PTCLDY    41  33  73 N12       29.93R



USA.gov is the U.S. government's official web portal to all federal, state and local government web resources and services.